Regional Weather Roundup
Issued by NWS Sterling, VA

Home | Current Version | Previous Version | Graphics & Text | Print | Product List | Glossary On
Versions: 1 2 3 4 5 6 7 8 9 10 11 12 13 14 15 16 17 18 19 20 21 22 23 24 25 26 27 28 29 30 31 32 33 34 35 36 37 38 39 40 41 42 43 44 45 46 47 48 49 50
000
ASUS41 KLWX 280910
RWRLWX

REGIONAL WEATHER ROUNDUP
NATIONAL WEATHER SERVICE BALTIMORE MD/WASHINGTON DC
400 AM EST FRI NOV 28 2014

Note: "FAIR" indicates few or no clouds below 12,000 feet
with no significant weather and/or obstructions to visibility.
 TC=TEMPERATURE CELSIUS

 * =Non NWS site. Station does not report precipitation (e.g. rain,
    snow, etc.), thunder, or fog.

DCZ001-MDZ009-015-VAZ040>042-051-053>054-281000-
WASHINGTON METRO

CITY           SKY/WX    TMP DP  RH WIND       PRES   REMARKS
WASHINGTON NAT CLEAR     35  21  56 W5        30.23R
DULLES         PTCLDY    30  21  69 W9        30.22R WCI  22
ANDREWS AFB    CLEAR     33  21  62 W8        30.20R WCI  26
FT BELVOIR     CLEAR     32  21  65 W7        30.23S
QUANTICO       CLEAR     33  21  61 CALM      30.25R
COLLEGE PARK*  CLEAR     34  23  64 SW3       30.21S
LEESBURG*      CLEAR     32  27  80 NW10G18   30.22S WCI  24
MANASSAS*      CLEAR     30  23  74 W3        30.23S
GAITHERSBURG*  CLEAR     30  19  64 NW12G20   30.22S WCI  21

$$

MDZ006>007-011-014-281000-
BALTIMORE METRO

CITY           SKY/WX    TMP DP  RH WIND       PRES   REMARKS
BWI AIRPORT    PTCLDY    32  22  66 W8        30.19R WCI  25
MD SCIENCE CTR   N/A     35  21  56 MISG      30.18S
MARTIN STATE   FAIR      32  27  80 W3        30.20S
ANNAPOLIS      CLEAR     35  23  61 W7        30.20R
FORT MEADE*    PTCLDY    32  25  74 W7        30.22S

$$

MDZ012-015-019>023-281000-
MARYLAND EASTERN SHORE

CITY           SKY/WX    TMP DP  RH WIND       PRES   REMARKS
OCEAN CITY     MOCLDY    34  28  79 NW9       30.16S WCI  27
SALISBURY      PTCLDY    37  25  61 NW13      30.17R WCI  29
BAY BRIDGE AP*   N/A     36  23  60 W13G21    30.20R WCI  27
CAMBRIDGE*     CLEAR     37  25  60 NW17      30.19R WCI  28
EASTON*        CLEAR     36  26  69 N9        30.22R WCI  29

$$

MDZ017>025-281000-
SOUTHERN MARYLAND

CITY           SKY/WX    TMP DP  RH WIND       PRES   REMARKS
PATUXENT RIVER CLEAR     33  22  63 W10       30.21R WCI  25
ST INIGOES     CLEAR     34  22  61 NW9       30.22R WCI  27
LEONARDTOWN*   CLEAR     32  23  69 W7        30.23R

$$

MDZ003>005-281000-
NORTH CENTRAL MARYLAND

CITY           SKY/WX    TMP DP  RH WIND       PRES   REMARKS
FREDERICK*     CLEAR     34  21  60 W17       30.23R WCI  23
HAGERSTOWN APT CLOUDY    32  22  66 W16       30.18S WCI  21
WESTMINSTER*   CLEAR     30  25  80 W10       30.15S WCI  21

$$

MDZ501>502-281000-
WESTERN MARYLAND

CITY           SKY/WX    TMP DP  RH WIND       PRES   REMARKS
OAKLAND*       CLOUDY    21 N/A N/A NW12G25   30.10F WCI   9
CUMBERLAND*    CLOUDY    32  19  59 W5G16     30.26R

$$

VAZ025>031-281000-
SHENANDOAH VALLEY

CITY           SKY/WX    TMP DP  RH WIND       PRES   REMARKS
WINCHESTER*    CLOUDY    34  21  60 W7        30.22R
FRONT ROYAL*   CLOUDY    32  21  64 CALM      30.21S
LURAY*         PTSUNNY   32  27  80 SW7       30.22R
NEW MARKET*    FAIR      27  24  86 CALM      30.23R
STAUNTON*      PTCLDY    23  19  85 CALM      30.24R
WAYNESBORO*    FAIR      27  19  71 W7        30.21R

$$

WVZ021-048>050-054>055-281000-
EASTERN WEST VIRGINIA PANHANDLE

CITY           SKY/WX    TMP DP  RH WIND       PRES   REMARKS
MARTINSBURG    CLOUDY    34  19  54 W3        30.21S
PETERSBURG*    CLOUDY    31  18  60 NW12G17   30.25R WCI  21

$$

VAZ036>039-050-281000-
CENTRAL FOOTHILLS

CITY           SKY/WX    TMP DP  RH WIND       PRES   REMARKS
CHARLOTTESVILL CLEAR     30  18  60 CALM      30.23R
CULPEPER*      CLEAR     34  21  60 NW5       30.24R
ORANGE*        CLEAR     32  23  69 SW3       30.24S
GORDONSVILLE*  FAIR      32  20  60 CALM      30.23S
WARRENTON*     FAIR      28  25  90 W8        30.23R WCI  20

$$

VAZ055>057-281000-
NORTH AND CENTRAL PIEDMONT

CITY           SKY/WX    TMP DP  RH WIND       PRES   REMARKS
FREDERICKSBRG* CLEAR     28  26  91 W7        30.24R
STAFFORD*      CLEAR     26  24  94 CALM      30.28R

$$

NCZ024-NYZ072-PAZ021-071-VAZ022-071-281000-
OTHER REGIONAL OBSERVATIONS

CITY           SKY/WX    TMP DP  RH WIND       PRES   REMARKS
NEW YORK CITY  CLEAR     31  21  66 W9        30.10S WCI  23
PHILADELPHIA   MOCLDY    34  27  75 W8        30.14S WCI  27
PITTSBURGH     LGT SNOW  27  24  89 NW6       30.23S FOG
ROANOKE        MOCLDY    32  17  54 CALM      30.28R
RICHMOND       CLEAR     32  24  72 NW6       30.24R
RALEIGH        CLEAR     30  21  69 CALM      30.29S

$$

ANZ530>537-281000-
MARINE OBSERVATIONS

STATION/POSITION TIME  TEMP    WIND        PRES
                       AIR SEA DIR/SP/G
                 (UTC) (F)     (DEG/KT/KT) (MB)
THOMAS PT LIGHT  0900   36 47  300/ 13/ 16 1023.7R
BALT KEY BRIDGE  0900   36     270/ 14/ 16 1022.0R
COVE POINT       0900   35     320/ 11/ 15 1022.7R
LEWISETTA        0900   37 45  330/ 21/ 27 1023.1R
SOLOMONS ISLAND  0900      48                N/A
PINEY POINT      0900          340/ 20/ 23   N/A

$$




USA.gov is the U.S. government's official web portal to all federal, state and local government web resources and services.